| time (UTC) | temp C | wind direction | speed KPH | gust KPH | rain 1hr cm | rain 24hr cm | rain mn cm | humidity % | barometer mb |
| 20260507160022 | 13 | 226 | 12.9 | 24.1 | 0.00 | 0.00 | 0.00 | 31 | 1011.4 |
| 20260507154520 | 13 | 296 | 11.3 | 22.5 | 0.00 | 0.00 | 0.00 | 31 | 1011.5 |
| 20260507153017 | 13 | 267 | 4.8 | 17.7 | 0.00 | 0.00 | 0.00 | 33 | 1011.6 |
| 20260507151514 | 11 | 232 | 9.7 | 20.9 | 0.00 | 0.00 | 0.00 | 34 | 1012.0 |
| 20260507150020 | 12 | 319 | 12.9 | 22.5 | 0.00 | 0.00 | 0.00 | 34 | 1012.0 |
| 20260507144519 | 11 | 261 | 8.0 | 20.9 | 0.00 | 0.00 | 0.00 | 38 | 1012.4 |
| 20260507143002 | 11 | 273 | 4.8 | 24.1 | 0.00 | 0.00 | 0.00 | 40 | 1012.4 |
| 20260507141602 | 11 | 287 | 9.7 | 20.9 | 0.00 | 0.00 | 0.00 | 42 | 1012.7 |
| 20260507140056 | 10 | 267 | 11.3 | 19.3 | 0.00 | 0.00 | 0.00 | 43 | 1013.0 |
| 20260507134550 | 11 | 218 | 6.4 | 14.5 | 0.00 | 0.03 | 0.00 | 49 | 1013.0 |
| 20260507133100 | 10 | 232 | 3.2 | 11.3 | 0.00 | 0.03 | 0.00 | 53 | 1013.1 |
| 20260507131550 | 10 | 221 | 3.2 | 8.0 | 0.00 | 0.03 | 0.00 | 55 | 1013.2 |
| 20260507130051 | 8 | 241 | 3.2 | 9.7 | 0.00 | 0.03 | 0.00 | 57 | 1013.2 |
| 20260507124533 | 8 | 242 | 1.6 | 6.4 | 0.00 | 0.05 | 0.00 | 59 | 1013.3 |
| 20260507123029 | 8 | 256 | 1.6 | 4.8 | 0.00 | 0.05 | 0.00 | 62 | 1013.1 |
| 20260507121525 | 7 | 268 | 3.2 | 6.4 | 0.00 | 0.05 | 0.00 | 63 | 1013.3 |
| 20260507120024 | 6 | 269 | 3.2 | 9.7 | 0.00 | 0.05 | 0.00 | 66 | 1013.1 |
| 20260507114517 | 6 | 310 | 1.6 | 4.8 | 0.00 | 0.18 | 0.00 | 67 | 1013.3 |
| 20260507113015 | 6 | 346 | 0.0 | 1.6 | 0.00 | 0.18 | 0.00 | 68 | 1013.1 |
| 20260507111509 | 5 | 346 | 0.0 | 1.6 | 0.00 | 0.18 | 0.00 | 69 | 1012.8 |
| 20260507110005 | 5 | 346 | 0.0 | 0.0 | 0.00 | 0.41 | 0.00 | 68 | 1012.8 |
| 20260507104601 | 4 | 346 | 0.0 | 0.0 | 0.00 | 0.41 | 0.00 | 68 | 1012.7 |
| 20260507103058 | 4 | 346 | 0.0 | 0.0 | 0.00 | 0.41 | 0.00 | 68 | 1012.4 |
| 20260507101603 | 4 | 346 | 0.0 | 1.6 | 0.00 | 0.41 | 0.00 | 67 | 1012.4 |
| 20260507100057 | 5 | 346 | 0.0 | 0.0 | 0.00 | 0.41 | 0.00 | 68 | 1012.5 |
| 20260507094552 | 5 | 346 | 0.0 | 0.0 | 0.00 | 0.71 | 0.00 | 67 | 1012.4 |
| 20260507093051 | 5 | 346 | 0.0 | 1.6 | 0.00 | 0.71 | 0.00 | 66 | 1012.4 |
| 20260507091550 | 5 | 346 | 0.0 | 0.0 | 0.00 | 0.71 | 0.00 | 64 | 1012.5 |
| 20260507090049 | 5 | 346 | 0.0 | 1.6 | 0.00 | 0.71 | 0.00 | 63 | 1012.4 |
| 20260507084556 | 5 | 346 | 0.0 | 0.0 | 0.00 | 0.99 | 0.00 | 62 | 1012.5 |
| 20260507083047 | 5 | 346 | 0.0 | 0.0 | 0.00 | 0.99 | 0.00 | 62 | 1012.4 |
| 20260507081546 | 5 | 346 | 0.0 | 0.0 | 0.00 | 0.99 | 0.00 | 62 | 1012.4 |
| 20260507080048 | 6 | 346 | 0.0 | 0.0 | 0.00 | 0.99 | 0.00 | 61 | 1012.4 |
| 20260507074542 | 6 | 346 | 0.0 | 0.0 | 0.00 | 0.99 | 0.00 | 60 | 1012.4 |
| 20260507073040 | 6 | 346 | 0.0 | 0.0 | 0.00 | 0.99 | 0.00 | 60 | 1012.4 |
| 20260507071539 | 6 | 346 | 0.0 | 1.6 | 0.00 | 0.99 | 0.00 | 61 | 1012.6 |
| 20260507070039 | 6 | 346 | 0.0 | 1.6 | 0.00 | 0.99 | 0.00 | 62 | 1012.6 |
| 20260507064538 | 6 | 346 | 0.0 | 1.6 | 0.00 | 1.09 | 0.00 | 63 | 1012.5 |
| 20260507063037 | 6 | 346 | 0.0 | 0.0 | 0.00 | 1.09 | 0.00 | 61 | 1012.7 |
| 20260507061535 | 6 | 346 | 0.0 | 0.0 | 0.00 | 1.09 | 0.00 | 61 | 1012.6 |
| 20260507060031 | 7 | 346 | 0.0 | 3.2 | 0.00 | 1.09 | 0.00 | 60 | 1012.6 |
| 20260507054536 | 7 | 346 | 0.0 | 4.8 | 0.00 | 1.19 | 0.00 | 59 | 1012.7 |
| 20260507053026 | 7 | 346 | 1.6 | 6.4 | 0.00 | 1.19 | 0.00 | 58 | 1012.8 |
| 20260507051529 | 7 | 347 | 1.6 | 6.4 | 0.00 | 1.19 | 0.00 | 57 | 1013.2 |
| 20260507050027 | 7 | 350 | 1.6 | 8.0 | 0.00 | 1.19 | 0.00 | 56 | 1013.2 |
| 20260507044521 | 7 | 346 | 1.6 | 3.2 | 0.00 | 1.22 | 0.00 | 55 | 1013.2 |
| 20260507043023 | 8 | 346 | 1.6 | 4.8 | 0.00 | 1.22 | 0.00 | 54 | 1013.1 |
| 20260507041518 | 8 | 11 | 1.6 | 6.4 | 0.00 | 1.22 | 0.00 | 55 | 1013.2 |
| 20260507040014 | 8 | 11 | 1.6 | 4.8 | 0.00 | 1.22 | 0.00 | 55 | 1013.0 |
| 20260507034513 | 8 | 13 | 1.6 | 4.8 | 0.00 | 1.22 | 1.22 | 55 | 1012.8 |
| 20260507033011 | 8 | 17 | 1.6 | 6.4 | 0.00 | 1.22 | 1.22 | 55 | 1012.9 |
| 20260507031511 | 8 | 360 | 0.0 | 6.4 | 0.00 | 1.22 | 1.22 | 55 | 1012.8 |
| 20260507030009 | 8 | 5 | 0.0 | 0.0 | 0.00 | 1.22 | 1.22 | 54 | 1012.4 |
| 20260507024511 | 8 | 5 | 0.0 | 4.8 | 0.00 | 1.22 | 1.22 | 54 | 1012.4 |
| 20260507023110 | 8 | 5 | 0.0 | 4.8 | 0.00 | 1.22 | 1.22 | 53 | 1012.5 |
| 20260507021505 | 8 | 348 | 1.6 | 3.2 | 0.00 | 1.22 | 1.22 | 53 | 1012.3 |
| 20260507020005 | 9 | 348 | 0.0 | 4.8 | 0.00 | 1.22 | 1.22 | 53 | 1011.9 |
| 20260507014503 | 9 | 15 | 0.0 | 6.4 | 0.00 | 1.22 | 1.22 | 52 | 1011.7 |
| 20260507013004 | 9 | 22 | 3.2 | 14.5 | 0.00 | 1.22 | 1.22 | 52 | 1011.3 |
| 20260507011600 | 9 | 14 | 0.0 | 6.4 | 0.00 | 1.22 | 1.22 | 53 | 1011.4 |
| 20260507010104 | 10 | 355 | 1.6 | 4.8 | 0.00 | 1.22 | 1.22 | 52 | 1011.3 |
| 20260507004606 | 10 | 355 | 1.6 | 8.0 | 0.00 | 1.22 | 1.22 | 50 | 1011.6 |
| 20260507003057 | 10 | 355 | 1.6 | 6.4 | 0.00 | 1.22 | 1.22 | 50 | 1011.7 |
| 20260507001559 | 10 | 360 | 1.6 | 6.4 | 0.00 | 1.22 | 1.22 | 50 | 1011.5 |
| 20260507000056 | 10 | 321 | 3.2 | 6.4 | 0.00 | 1.22 | 1.22 | 50 | 1011.3 |
| 20260506234556 | 11 | 324 | 1.6 | 8.0 | 0.00 | 1.22 | 1.22 | 49 | 1011.3 |
| 20260506233109 | 11 | 17 | 3.2 | 12.9 | 0.00 | 1.22 | 1.22 | 49 | 1011.3 |
| 20260506231600 | 11 | 321 | 6.4 | 22.5 | 0.00 | 1.22 | 1.22 | 49 | 1011.0 |
| 20260506230054 | 11 | 334 | 4.8 | 12.9 | 0.00 | 1.22 | 1.22 | 50 | 1010.8 |
| 20260506224553 | 11 | 324 | 6.4 | 12.9 | 0.00 | 1.22 | 1.22 | 50 | 1010.7 |
| 20260506223049 | 12 | 313 | 6.4 | 16.1 | 0.00 | 1.22 | 1.22 | 51 | 1010.4 |
| 20260506221549 | 12 | 360 | 6.4 | 16.1 | 0.00 | 1.22 | 1.22 | 52 | 1010.4 |
| 20260506220046 | 12 | 319 | 3.2 | 9.7 | 0.00 | 1.22 | 1.22 | 51 | 1010.1 |
| 20260506214549 | 12 | 360 | 3.2 | 8.0 | 0.00 | 1.22 | 1.22 | 54 | 1009.7 |
| 20260506213058 | 11 | 30 | 3.2 | 8.0 | 0.00 | 1.22 | 1.22 | 55 | 1009.7 |
| 20260506211546 | 12 | 325 | 3.2 | 12.9 | 0.00 | 1.22 | 1.22 | 57 | 1009.7 |
| 20260506210042 | 12 | 340 | 6.4 | 17.7 | 0.00 | 1.22 | 1.22 | 56 | 1009.4 |
| 20260506204540 | 12 | 286 | 4.8 | 16.1 | 0.00 | 1.22 | 1.22 | 57 | 1009.0 |
| 20260506203039 | 12 | 336 | 6.4 | 14.5 | 0.00 | 1.22 | 1.22 | 57 | 1009.2 |
| 20260506201542 | 12 | 336 | 1.6 | 12.9 | 0.00 | 1.22 | 1.22 | 59 | 1009.2 |
| 20260506200037 | 11 | 298 | 1.6 | 11.3 | 0.00 | 1.22 | 1.22 | 60 | 1009.2 |
| 20260506194537 | 11 | 340 | 4.8 | 12.9 | 0.00 | 1.22 | 1.22 | 61 | 1009.2 |
| 20260506193037 | 11 | 309 | 4.8 | 12.9 | 0.00 | 1.22 | 1.22 | 62 | 1009.4 |
| 20260506191535 | 11 | 302 | 1.6 | 8.0 | 0.00 | 1.22 | 1.22 | 63 | 1009.2 |
| 20260506190033 | 11 | 340 | 3.2 | 9.7 | 0.00 | 1.22 | 1.22 | 65 | 1009.1 |
| 20260506184544 | 11 | 309 | 8.0 | 19.3 | 0.00 | 1.22 | 1.22 | 64 | 1009.1 |
| 20260506183038 | 11 | 325 | 0.0 | 14.5 | 0.00 | 1.22 | 1.22 | 64 | 1008.9 |
| 20260506181539 | 11 | 335 | 6.4 | 14.5 | 0.00 | 1.22 | 1.22 | 65 | 1009.0 |
| 20260506180033 | 11 | 333 | 1.6 | 14.5 | 0.00 | 1.22 | 1.22 | 66 | 1008.9 |
| 20260506174528 | 11 | 338 | 3.2 | 12.9 | 0.00 | 1.22 | 1.22 | 65 | 1008.9 |
| 20260506173027 | 10 | 287 | 6.4 | 19.3 | 0.00 | 1.22 | 1.22 | 66 | 1008.8 |
| 20260506171526 | 11 | 310 | 8.0 | 17.7 | 0.00 | 1.22 | 1.22 | 67 | 1008.7 |
| 20260506170024 | 11 | 337 | 9.7 | 17.7 | 0.00 | 1.22 | 1.22 | 68 | 1008.5 |
| 20260506164529 | 10 | 24 | 9.7 | 17.7 | 0.00 | 1.22 | 1.22 | 79 | 1008.5 |
| 20260506163021 | 10 | 300 | 4.8 | 17.7 | 0.00 | 1.22 | 1.22 | 84 | 1008.3 |
| 20260506161521 | 9 | 355 | 6.4 | 16.1 | 0.00 | 1.22 | 1.22 | 84 | 1008.2 |